Lexington Weather

Lexington, Massachusetts, USA

36°F
1/28/2020 5:07am 
  • Lexington Conditions: Overcast
  • Temperature: 36.1°F / 2.3°C 
  • Dew Point: 30.0°FIncreased 0.7°Fsince last hour.
  • Relative Humidity: 78%Increased 2.0% since last hour.
  • Wind: Wind from NNW NNW Calm, 10-min avg: 2 mph, gust: 5 mph
  • Barometer: 29.63 in Steady
  • Visibility: 10 miles
  • Rain Today: 0.00 in
  •   

Regional Weather Roundup
for Boston / Norton, MA

        
000
ASUS41 KBOX 260710
RWRBOX

REGIONAL WEATHER ROUNDUP
NATIONAL WEATHER SERVICE BOSTON/NORTON MA
200 AM EST SUN JAN 26 2020

NOTE:  "FAIR" INDICATES FEW OR NO CLOUDS BELOW 12,000 FEET WITH NO 
SIGNIFICANT WEATHER AND/OR OBSTRUCTIONS TO VISIBILITY.

MAZALL-260800-
EASTERN MASSACHUSETTS
  
CITY           SKY/WX    TMP DP  RH WIND       PRES   REMARKS
BOSTON         MOCLDY    50  44  80 SW13      29.67R                  
BEVERLY        CLOUDY    47  45  93 SW14G20   29.65S FOG              
LAWRENCE       FOG       45  43  93 SW3       29.67S VSB 1/4          
BEDFORD        CLOUDY    42  40  92 W6        29.67R FOG              
BLUE HILL        N/A     45  44  97 SW10      29.65S                  
NORWOOD        CLOUDY    50  44  80 VRB5      29.68R                  
MARSHFIELD     CLOUDY    50  50 100 SW6G15    29.66F                  
PLYMOUTH       MOCLDY    46  45  96 SW7       29.68F                  
TAUNTON        FAIR      46  44  93 SW3       29.68S                  
NEW BEDFORD    MOCLDY    46  32  58 SW6       29.68F                  
$$

MAZALL-260800-
CAPE COD AND THE ISLANDS
  
CITY           SKY/WX    TMP DP  RH WIND       PRES   REMARKS
FALMOUTH       FOG       45  45 100 W17       29.69F VSB 1/4          
HYANNIS        MOCLDY    47  45  93 W13       29.67R FOG              
CHATHAM        FOG       44  44 100 S3        29.70R VSB 1/4          
PROVINCETOWN   CLOUDY    45  45 100 SW12      29.68S FOG              
NANTUCKET      FOG       44  43  96 W12       29.72R VSB 1/2          
MARTHAS VNYRD  CLOUDY    46  45  96 W9        29.70S                  
$$
 
MAZALL-260800-
CENTRAL AND WESTERN MASSACHUSETTS
  
CITY           SKY/WX    TMP DP  RH WIND       PRES   REMARKS
WORCESTER      CLOUDY    41  39  93 W13       29.66S FOG              
FITCHBURG      FOG       37  36  96 CALM      29.68S VSB 1/2          
ORANGE         CLOUDY    38  36  92 NW3       29.70R                  
SPRINGFIELD    FOG       39  39 100 CALM      29.69S VSB 1            
WESTFIELD      MOCLDY    37  35  92 W5        29.71R                  
NORTH ADAMS    CLOUDY    38  33  82 W12       29.73R WCI  30          
PITTSFIELD     CLOUDY    36  32  85 NW9       29.70R WCI  29          
$$
 
RIZALL-260800-
RHODE ISLAND
  
CITY           SKY/WX    TMP DP  RH WIND       PRES   REMARKS
PROVIDENCE     CLOUDY    43  43 100 S5        29.69S FOG              
NEWPORT        MOCLDY    47  43  86 SW3       29.69S                  
BLOCK ISLAND   CLOUDY    43  42  97 W13       29.72S                  
SMITHFIELD     CLOUDY    46  45  96 W5        29.68S                  
WESTERLY       CLOUDY    45  41  86 W10       29.71R FOG              
$$
 
CTZALL-260800-
CONNECTICUT
  
CITY           SKY/WX    TMP DP  RH WIND       PRES   REMARKS
BRADLEY INTL   FAIR      38  37  97 W5        29.71S                  
HARTFORD       FAIR      37  36  96 SE3       29.72S                  
BRIDGEPORT     CLOUDY    41  38  89 SW6       29.75R                  
DANBURY        CLOUDY    38  36  92 W5        29.76R                  
GROTON         CLOUDY    42  42 100 SW10      29.71R                  
NEW HAVEN      CLOUDY    44  40  85 W8        29.74R                  
CHESTER        NOT AVBL                                               
MERIDEN        FAIR      40  37  89 W9G18     29.73R                  
WILLIMANTIC    CLOUDY    43  42  97 W7        29.71R                  
OXFORD         CLOUDY    37  37 100 NW5       29.73R                  
$$

MEZ002-015-021-024-NHZ003-005-008-011-012-014-VTZ005-008-260800-
NORTHERN NEW ENGLAND
  
CITY           SKY/WX    TMP DP  RH WIND       PRES   REMARKS
PORTLAND ME    LGT RAIN  44  42  93 E7        29.69F FOG              
BANGOR ME      RAIN      36  35  96 NE5       29.87F FOG              
CONCORD NH     CLOUDY    36  35  96 NW9       29.68F FOG     WCI  29  
MANCHESTER NH  DRIZZLE   40  39  97 N6        29.65F FOG              
NASHUA NH      CLOUDY    40  40 100 NW8       29.68S FOG              
PORTSMOUTH NH  FOG       45  45  99 SE5       29.64F VSB 1/4          
JAFFREY NH     CLOUDY    35  34  96 CALM      29.67S FOG              
KEENE NH       MIX PCPN  34  34 100 CALM      29.70R VSB 1            
BURLINGTON VT  CLOUDY    33  31  92 E3        29.69                   
MT. WASHINGTON FRZ RAIN  23  23 100 SE44        N/A  VSB 1/16WCI   3  
$$

NYZ052-076-260800-
EASTERN NEW YORK
  
CITY           SKY/WX    TMP DP  RH WIND       PRES   REMARKS
ALBANY         CLOUDY    38  32  79 NW5       29.76R                  
NEW YORK CITY  FAIR      42  35  76 W12       29.79R                  
$$
 
ANZALL-260800-
MARINE OBSERVATIONS
  
STATION/POSITION TIME  TEMP    WIND        PRES    VSBY  WAVE
                       AIR SEA DIR/SP/G                  HT/PER
                 (UTC) (F)     (DEG/KT/KT) (MB)    (MI)  (FT/S)
BOSTON BUOY      0650   46 43  190/ 10/ 12 1003.7F         8/ 8
BUZZARDS BAY     0600   44     220/ 16/ 16 1006.0F
NANTUCKET SOUND  0640                        N/A           2/ 5
MASS BAY-STELLWA 0604   45 42  200/ 14/ 17 1002.7F  1 7/8 11/ 8
ISLE OF SHOALS   0600   46     140/ 18/ 19 1004.1F
S OF BLOCK IS    0700      44                N/A           7/ 9
$$

......................KEY.........................
  SKY/WX - SKY CONDITION/PRESENT WEATHER
  TMP    - TEMPERATURE IN FAHRENHEIT
  DWPT   - DEWPOINT IN FAHRENHEIT
  RH     - RELATIVE HUMIDITY IN PERCENT
  WIND   - DIRECTION AND SPEED IN MPH
  PRES   - MEAN SEA LEVEL PRESSURE IN INCHES OF HG
  WCI    - WIND CHILL INDEX
  VSB    - VISIBILITY IN MILES
  HX     - HEAT INDEX
  TC     - TEMPERATURE IN CELSIUS
  VRB    - VARIABLE WIND DIRECTION
  N/A    - NOT AVAILABLE
  
      

Other recent Regional Weather Roundups

Tue Jan 28, 5:00am

Tue Jan 28, 4:10am

Tue Jan 28, 4:00am

Tue Jan 28, 3:10am

Tue Jan 28, 3:01am

Tue Jan 28, 2:10am

Tue Jan 28, 2:00am

Tue Jan 28, 1:10am

Tue Jan 28, 1:00am

Tue Jan 28, 12:10am

Tue Jan 28, 12:01am

Mon Jan 27, 11:10pm

Mon Jan 27, 11:00pm

Mon Jan 27, 10:10pm

Mon Jan 27, 10:00pm

Mon Jan 27, 9:10pm

Mon Jan 27, 9:00pm

Mon Jan 27, 8:10pm

Mon Jan 27, 8:01pm

Mon Jan 27, 7:10pm

Mon Jan 27, 7:00pm

Mon Jan 27, 6:10pm

Mon Jan 27, 6:00pm

Mon Jan 27, 5:10pm

Mon Jan 27, 5:00pm

Mon Jan 27, 4:10pm

Mon Jan 27, 4:00pm

Mon Jan 27, 3:10pm

Mon Jan 27, 3:00pm

Mon Jan 27, 2:10pm

Mon Jan 27, 2:00pm

Mon Jan 27, 1:10pm

Mon Jan 27, 1:00pm

Mon Jan 27, 12:10pm

Mon Jan 27, 12:00pm

Mon Jan 27, 11:10am

Mon Jan 27, 11:01am

Mon Jan 27, 10:10am

Mon Jan 27, 10:00am

Mon Jan 27, 9:10am

Mon Jan 27, 9:00am

Mon Jan 27, 8:10am

Mon Jan 27, 8:00am

Mon Jan 27, 7:10am

Mon Jan 27, 7:00am

Mon Jan 27, 6:10am

Mon Jan 27, 6:00am

Mon Jan 27, 5:10am

Mon Jan 27, 5:00am

Mon Jan 27, 4:10am

Mon Jan 27, 4:01am

Mon Jan 27, 3:10am

Mon Jan 27, 3:00am

Mon Jan 27, 2:10am

Mon Jan 27, 2:00am

Mon Jan 27, 1:10am

Mon Jan 27, 1:00am

Mon Jan 27, 12:10am

Mon Jan 27, 12:00am

Sun Jan 26, 11:10pm

Sun Jan 26, 11:00pm

Sun Jan 26, 10:10pm

Sun Jan 26, 10:00pm

Sun Jan 26, 9:10pm

Sun Jan 26, 9:01pm

Sun Jan 26, 8:10pm

Sun Jan 26, 8:00pm

Sun Jan 26, 7:10pm

Sun Jan 26, 7:00pm

Sun Jan 26, 6:10pm

Sun Jan 26, 6:01pm

Sun Jan 26, 5:10pm

Sun Jan 26, 5:01pm

Sun Jan 26, 4:10pm

Sun Jan 26, 4:00pm

Sun Jan 26, 3:10pm

Sun Jan 26, 3:01pm

Sun Jan 26, 2:10pm

Sun Jan 26, 2:01pm

Sun Jan 26, 1:10pm

Sun Jan 26, 1:00pm

Sun Jan 26, 12:10pm

Sun Jan 26, 12:00pm

Sun Jan 26, 11:10am

Sun Jan 26, 11:01am

Sun Jan 26, 10:10am

Sun Jan 26, 10:01am

Sun Jan 26, 9:10am

Sun Jan 26, 9:00am

Sun Jan 26, 8:10am

Sun Jan 26, 8:00am

Sun Jan 26, 7:10am

Sun Jan 26, 7:00am

Sun Jan 26, 6:10am

Sun Jan 26, 6:00am

Sun Jan 26, 5:10am

Sun Jan 26, 5:00am

Sun Jan 26, 4:10am

Sun Jan 26, 4:01am

Sun Jan 26, 3:10am

Sun Jan 26, 3:01am

Sun Jan 26, 2:00am

Sun Jan 26, 1:10am

Sun Jan 26, 1:00am

Sun Jan 26, 12:10am

Sun Jan 26, 12:00am

Sat Jan 25, 11:10pm

Sat Jan 25, 11:00pm

Sat Jan 25, 10:10pm

Sat Jan 25, 10:01pm

Sat Jan 25, 9:10pm

Sat Jan 25, 9:01pm

Sat Jan 25, 8:10pm

Sat Jan 25, 8:01pm

Sat Jan 25, 7:10pm

Sat Jan 25, 7:01pm

Sat Jan 25, 6:10pm

Sat Jan 25, 6:01pm

Sat Jan 25, 5:10pm

Sat Jan 25, 5:01pm

Sat Jan 25, 4:10pm

Sat Jan 25, 4:00pm

Sat Jan 25, 3:10pm

Sat Jan 25, 3:01pm

Sat Jan 25, 2:10pm

Sat Jan 25, 2:00pm

Sat Jan 25, 1:10pm

Sat Jan 25, 1:00pm

Sat Jan 25, 12:10pm

Sat Jan 25, 12:00pm

Sat Jan 25, 11:10am

Sat Jan 25, 11:00am

Sat Jan 25, 10:10am

Sat Jan 25, 10:00am

Sat Jan 25, 9:10am

Sat Jan 25, 9:00am

Sat Jan 25, 8:10am

Sat Jan 25, 8:01am

Sat Jan 25, 7:10am

Sat Jan 25, 7:00am

Sat Jan 25, 6:10am

Sat Jan 25, 6:00am

Sat Jan 25, 5:10am

Meta data:

ID: 64e8fa05-a93d-4bce-900f-d7c57c0277c0
Link: https://api.weather.gov/products/64e8fa05-a93d-4bce-900f-d7c57c0277c0